Binar 3
1 60957U 98067WX  24284.52655416  .00322510  00000-0  26080-2 0  9992
2 60957  51.6272 101.4087 0001664 290.6806  69.4012 15.69265939  8556
